| time (UTC) | temp C | wind direction | speed KPH | gust KPH | rain 1hr cm | rain 24hr cm | rain mn cm | humidity % | barometer mb |
| 20260507220041 | 13 | 238 | 3.2 | 14.5 | 0.00 | 0.13 | 0.13 | 79 | 1011.4 |
| 20260507214536 | 13 | 229 | 1.6 | 9.7 | 0.00 | 0.13 | 0.13 | 77 | 1011.5 |
| 20260507213033 | 13 | 247 | 1.6 | 11.3 | 0.00 | 0.13 | 0.13 | 76 | 1011.4 |
| 20260507211529 | 13 | 117 | 1.6 | 6.4 | 0.00 | 0.13 | 0.13 | 72 | 1011.3 |
| 20260507210032 | 14 | 223 | 1.6 | 11.3 | 0.00 | 0.13 | 0.13 | 70 | 1011.2 |
| 20260507204529 | 14 | 0 | 1.6 | 8.0 | 0.00 | 0.13 | 0.13 | 71 | 1011.2 |
| 20260507203033 | 13 | 262 | 1.6 | 4.8 | 0.00 | 0.13 | 0.13 | 72 | 1011.4 |
| 20260507201530 | 14 | 214 | 1.6 | 9.7 | 0.00 | 0.13 | 0.13 | 72 | 1011.3 |
| 20260507200032 | 13 | 82 | 0.0 | 4.8 | 0.00 | 0.13 | 0.13 | 72 | 1011.6 |
| 20260507194530 | 13 | 0 | 0.0 | 6.4 | 0.00 | 0.13 | 0.13 | 71 | 1011.7 |
| 20260507193033 | 13 | 18 | 3.2 | 8.0 | 0.00 | 0.13 | 0.13 | 70 | 1011.9 |
| 20260507191533 | 13 | 25 | 3.2 | 9.7 | 0.00 | 0.13 | 0.13 | 74 | 1011.9 |
| 20260507190032 | 13 | 178 | 1.6 | 6.4 | 0.00 | 0.13 | 0.13 | 74 | 1012.1 |
| 20260507184530 | 13 | 0 | 0.0 | 4.8 | 0.00 | 0.13 | 0.13 | 74 | 1012.5 |
| 20260507183031 | 12 | 129 | 0.0 | 4.8 | 0.03 | 0.13 | 0.13 | 76 | 1012.4 |
| 20260507181531 | 12 | 0 | 0.0 | 3.2 | 0.03 | 0.13 | 0.13 | 79 | 1012.4 |
| 20260507180030 | 12 | 0 | 0.0 | 3.2 | 0.03 | 0.13 | 0.13 | 81 | 1012.6 |
| 20260507174540 | 12 | 0 | 1.6 | 3.2 | 0.03 | 0.13 | 0.13 | 84 | 1012.7 |
| 20260507173035 | 12 | 17 | 0.0 | 3.2 | 0.00 | 0.10 | 0.10 | 84 | 1012.9 |
| 20260507171536 | 11 | 328 | 0.0 | 3.2 | 0.00 | 0.10 | 0.10 | 85 | 1012.8 |
| 20260507170041 | 11 | 0 | 0.0 | 1.6 | 0.00 | 0.10 | 0.10 | 86 | 1013.1 |
| 20260507164533 | 11 | 254 | 0.0 | 3.2 | 0.03 | 0.10 | 0.10 | 88 | 1013.3 |
| 20260507163030 | 11 | 200 | 0.0 | 3.2 | 0.03 | 0.10 | 0.10 | 87 | 1013.5 |
| 20260507161532 | 11 | 5 | 0.0 | 1.6 | 0.03 | 0.10 | 0.10 | 90 | 1013.6 |
| 20260507160033 | 11 | 5 | 0.0 | 3.2 | 0.03 | 0.10 | 0.10 | 89 | 1013.8 |
| 20260507154531 | 11 | 0 | 0.0 | 1.6 | 0.00 | 0.08 | 0.08 | 89 | 1013.9 |
| 20260507153030 | 11 | 0 | 0.0 | 4.8 | 0.03 | 0.08 | 0.08 | 87 | 1014.2 |
| 20260507151530 | 11 | 0 | 0.0 | 3.2 | 0.03 | 0.08 | 0.08 | 90 | 1013.9 |
| 20260507150036 | 11 | 40 | 0.0 | 3.2 | 0.03 | 0.08 | 0.08 | 90 | 1013.7 |
| 20260507144530 | 11 | 40 | 0.0 | 3.2 | 0.03 | 0.10 | 0.08 | 88 | 1013.9 |
| 20260507143034 | 11 | 24 | 0.0 | 4.8 | 0.00 | 0.08 | 0.05 | 88 | 1014.1 |
| 20260507141533 | 12 | 38 | 0.0 | 3.2 | 0.00 | 0.08 | 0.05 | 86 | 1014.1 |
| 20260507140033 | 12 | 56 | 1.6 | 4.8 | 0.00 | 0.08 | 0.05 | 84 | 1014.3 |
| 20260507134534 | 12 | 35 | 1.6 | 4.8 | 0.00 | 0.15 | 0.05 | 84 | 1014.1 |
| 20260507133032 | 12 | 42 | 0.0 | 3.2 | 0.00 | 0.15 | 0.05 | 84 | 1014.3 |
| 20260507131545 | 12 | 50 | 0.0 | 3.2 | 0.00 | 0.15 | 0.05 | 83 | 1014.3 |
| 20260507130029 | 12 | 0 | 0.0 | 4.8 | 0.00 | 0.15 | 0.05 | 85 | 1014.0 |
| 20260507124534 | 12 | 0 | 0.0 | 3.2 | 0.00 | 0.18 | 0.05 | 86 | 1014.0 |
| 20260507123030 | 12 | 0 | 0.0 | 3.2 | 0.00 | 0.18 | 0.05 | 86 | 1013.8 |
| 20260507121531 | 12 | 0 | 0.0 | 3.2 | 0.00 | 0.18 | 0.05 | 87 | 1013.8 |
| 20260507120039 | 12 | 0 | 0.0 | 3.2 | 0.00 | 0.18 | 0.05 | 87 | 1013.7 |
| 20260507114529 | 12 | 0 | 0.0 | 3.2 | 0.00 | 0.18 | 0.05 | 88 | 1013.9 |
| 20260507113032 | 12 | 0 | 0.0 | 1.6 | 0.00 | 0.18 | 0.05 | 89 | 1013.4 |
| 20260507111531 | 12 | 0 | 0.0 | 1.6 | 0.00 | 0.18 | 0.05 | 89 | 1013.5 |
| 20260507110029 | 12 | 0 | 0.0 | 3.2 | 0.00 | 0.18 | 0.05 | 89 | 1013.1 |
| 20260507104532 | 12 | 0 | 0.0 | 3.2 | 0.00 | 0.18 | 0.05 | 89 | 1012.8 |
| 20260507103032 | 12 | 0 | 0.0 | 3.2 | 0.00 | 0.18 | 0.05 | 90 | 1013.2 |
| 20260507101532 | 12 | 0 | 0.0 | 4.8 | 0.00 | 0.18 | 0.05 | 91 | 1013.1 |
| 20260507100035 | 12 | 34 | 0.0 | 3.2 | 0.00 | 0.18 | 0.05 | 91 | 1013.0 |
| 20260507094530 | 12 | 0 | 0.0 | 3.2 | 0.00 | 0.18 | 0.05 | 92 | 1012.7 |
| 20260507093028 | 12 | 55 | 0.0 | 4.8 | 0.00 | 0.18 | 0.05 | 92 | 1012.7 |
| 20260507091532 | 12 | 0 | 0.0 | 3.2 | 0.00 | 0.18 | 0.05 | 93 | 1012.9 |
| 20260507090033 | 12 | 41 | 0.0 | 3.2 | 0.00 | 0.18 | 0.05 | 94 | 1012.7 |
| 20260507084529 | 12 | 41 | 0.0 | 4.8 | 0.00 | 0.18 | 0.05 | 94 | 1012.4 |
| 20260507083030 | 13 | 41 | 0.0 | 3.2 | 0.00 | 0.18 | 0.05 | 94 | 1012.5 |
| 20260507081541 | 13 | 41 | 0.0 | 4.8 | 0.00 | 0.18 | 0.05 | 95 | 1012.1 |
| 20260507080033 | 13 | 0 | 0.0 | 3.2 | 0.00 | 0.18 | 0.05 | 94 | 1012.1 |
| 20260507074549 | 13 | 0 | 1.6 | 3.2 | 0.00 | 0.18 | 0.05 | 94 | 1012.3 |
| 20260507073034 | 14 | 0 | 0.0 | 3.2 | 0.00 | 0.18 | 0.05 | 95 | 1011.9 |
| 20260507071533 | 14 | 0 | 1.6 | 3.2 | 0.00 | 0.18 | 0.05 | 94 | 1011.6 |
| 20260507070030 | 15 | 61 | 1.6 | 4.8 | 0.00 | 0.18 | 0.05 | 95 | 1011.3 |
| 20260507064532 | 16 | 71 | 0.0 | 6.4 | 0.00 | 0.18 | 0.05 | 94 | 1011.0 |
| 20260507063034 | 17 | 60 | 1.6 | 4.8 | 0.00 | 0.18 | 0.05 | 95 | 1011.5 |
| 20260507061534 | 17 | 0 | 0.0 | 0.0 | 0.00 | 0.18 | 0.05 | 96 | 1011.6 |
| 20260507060032 | 17 | 0 | 0.0 | 0.0 | 0.03 | 0.18 | 0.05 | 95 | 1011.3 |
| 20260507054531 | 17 | 0 | 0.0 | 0.0 | 0.03 | 0.18 | 0.05 | 95 | 1011.4 |
| 20260507053032 | 17 | 0 | 0.0 | 0.0 | 0.05 | 0.18 | 0.05 | 95 | 1011.0 |
| 20260507051531 | 17 | 0 | 0.0 | 0.0 | 0.05 | 0.18 | 0.05 | 95 | 1010.3 |
| 20260507050032 | 17 | 0 | 0.0 | 0.0 | 0.03 | 0.15 | 0.03 | 94 | 1010.4 |
| 20260507044535 | 17 | 0 | 0.0 | 0.0 | 0.03 | 0.15 | 0.03 | 93 | 1010.9 |
| 20260507043032 | 17 | 0 | 0.0 | 0.0 | 0.00 | 0.13 | 0.00 | 92 | 1011.4 |
| 20260507041529 | 18 | 0 | 0.0 | 0.0 | 0.00 | 0.13 | 0.00 | 91 | 1011.2 |
| 20260507040035 | 18 | 0 | 0.0 | 0.0 | 0.00 | 0.13 | 0.00 | 90 | 1010.8 |
| 20260507034533 | 18 | 0 | 0.0 | 0.0 | 0.00 | 0.13 | 0.13 | 88 | 1011.3 |
| 20260507033029 | 18 | 0 | 0.0 | 3.2 | 0.00 | 0.13 | 0.13 | 87 | 1011.3 |
| 20260507031530 | 18 | 0 | 0.0 | 8.0 | 0.00 | 0.13 | 0.13 | 86 | 1011.1 |
| 20260507030030 | 18 | 0 | 0.0 | 3.2 | 0.00 | 0.13 | 0.13 | 86 | 1010.9 |
| 20260507024533 | 18 | 0 | 0.0 | 4.8 | 0.00 | 0.13 | 0.13 | 86 | 1011.1 |
| 20260507023030 | 18 | 0 | 0.0 | 8.0 | 0.00 | 0.13 | 0.13 | 86 | 1011.5 |
| 20260507021535 | 18 | 0 | 0.0 | 3.2 | 0.00 | 0.13 | 0.13 | 85 | 1010.8 |
| 20260507020031 | 18 | 0 | 0.0 | 6.4 | 0.00 | 0.13 | 0.13 | 85 | 1010.3 |
| 20260507014544 | 18 | 0 | 0.0 | 8.0 | 0.00 | 0.13 | 0.13 | 85 | 1010.3 |
| 20260507013030 | 18 | 86 | 0.0 | 8.0 | 0.00 | 0.13 | 0.13 | 85 | 1010.8 |
| 20260507011532 | 19 | 123 | 0.0 | 3.2 | 0.00 | 0.13 | 0.13 | 84 | 1010.5 |
| 20260507010034 | 19 | 124 | 0.0 | 6.4 | 0.00 | 0.13 | 0.13 | 84 | 1011.1 |
| 20260507004532 | 19 | 0 | 0.0 | 8.0 | 0.00 | 0.13 | 0.13 | 83 | 1011.0 |
| 20260507003030 | 20 | 213 | 1.6 | 4.8 | 0.00 | 0.13 | 0.13 | 82 | 1010.8 |
| 20260507001532 | 20 | 202 | 1.6 | 8.0 | 0.00 | 0.13 | 0.13 | 81 | 1010.9 |
| 20260507000037 | 20 | 256 | 0.0 | 8.0 | 0.00 | 0.13 | 0.13 | 80 | 1010.8 |
| 20260506234530 | 20 | 206 | 1.6 | 8.0 | 0.00 | 0.13 | 0.13 | 79 | 1010.4 |
| 20260506233034 | 20 | 140 | 1.6 | 9.7 | 0.00 | 0.13 | 0.13 | 79 | 1010.6 |
| 20260506231531 | 21 | 120 | 1.6 | 17.7 | 0.00 | 0.13 | 0.13 | 79 | 1010.8 |
| 20260506230032 | 21 | 25 | 1.6 | 9.7 | 0.00 | 0.13 | 0.13 | 78 | 1010.3 |
| 20260506224531 | 21 | 186 | 1.6 | 12.9 | 0.00 | 0.13 | 0.13 | 77 | 1010.1 |
| 20260506223032 | 21 | 254 | 3.2 | 12.9 | 0.00 | 0.13 | 0.13 | 77 | 1010.4 |
| 20260506221530 | 21 | 244 | 3.2 | 16.1 | 0.00 | 0.13 | 0.13 | 77 | 1010.2 |